Harlingen, TX

12:23 PM CST on November 18, 2017 (GMT -0600)
Valley International

Weather History for KHRL - February, 2014

Change the Weather History Date:

Sunday, February 2, 2014

  Actual Average Record
Temperature  
Mean Temperature 64 °F 62 °F  
Max Temperature 78 °F 72 °F 94 °F (2006)
Min Temperature 49 °F 51 °F 24 °F (1917)
Degree Days  
Heating Degree Days 1 5  
Month to date heating degree days 1 10  
Since 1 July heating degree days 634 458  
Cooling Degree Days 0 2  
Month to date cooling degree days 10 4  
Year to date cooling degree days 29 53  
Growing Degree Days 12 (Base 50)    
Moisture  
Dew Point 57 °F    
Average Humidity 74    
Maximum Humidity 84    
Minimum Humidity 64    
Precipitation  
Precipitation T in 0.05 in 1.62 in (1998)
Month to date precipitation T 0.11  
Year to date precipitation 0.84 1.17  
Sea Level Pressure  
Sea Level Pressure 29.88 in    
Wind  
Wind Speed 16 mph (SW)    
Max Wind Speed 32 mph    
Max Gust Speed 37 mph    
Visibility 10 miles    
Events      
T = Trace of Precipitation, MM = Missing Value Source: NWS Daily Summary

Daily Weather History Graph

Daily Weather History Graph

Search for Another Location

Airport or City:

Trip Planner

Search our weather history database for the weather conditions in past years. The results will help you decide how hot, cold, wet, or windy it might be!

Date:

Astronomy

Feb. 02, 2014 Rise Set
Actual Time 7:14 AM CST 6:14 PM CST
Civil Twilight 6:50 AM CST 6:38 PM CST
Nautical Twilight 6:22 AM CST 7:06 PM CST
Astronomical Twilight 5:55 AM CST 7:33 PM CST
Moon 9:05 AM CST (2/2) 9:33 PM CST (2/2)
Length of Visible Light 11h 48m
Length of Day
11h 00m
Waxing Crescent, 11% of the Moon is Illuminated
Feb 2
Waxing Crescent
Feb 6
First Quarter
Feb 14
Full
Feb 22
Last Quarter
Mar 1
New

Hourly Weather History & Observations

Time (CST) Temp. Dew Point Humidity Pressure Visibility Wind Dir Wind Speed Gust Speed Precip Events Conditions
12:52 AM 71.1 °F 66.0 °F 84% 29.78 in 9.0 mi South 18.4 mph - N/A   Overcast
1:34 AM 71.6 °F 66.2 °F 83% 29.78 in 9.0 mi South 13.8 mph - N/A   Overcast
1:52 AM 71.1 °F 66.0 °F 84% 29.78 in 9.0 mi South 12.7 mph - N/A   Overcast
2:52 AM 71.1 °F 64.9 °F 81% 29.76 in 9.0 mi SSE 13.8 mph - N/A   Overcast
3:52 AM 71.1 °F 66.0 °F 84% 29.74 in 8.0 mi South 17.3 mph - N/A   Overcast
4:17 AM 71.6 °F 64.4 °F 78% 29.74 in 9.0 mi SSE 12.7 mph 21.9 mph N/A   Overcast
4:52 AM 71.1 °F 64.9 °F 81% 29.74 in 9.0 mi SSE 15.0 mph - N/A   Overcast
5:25 AM 69.8 °F 64.4 °F 83% 29.74 in 9.0 mi SSE 13.8 mph - N/A   Mostly Cloudy
5:52 AM 69.1 °F 64.0 °F 84% 29.75 in 9.0 mi SSE 12.7 mph - N/A   Mostly Cloudy
6:52 AM 69.1 °F 64.9 °F 87% 29.76 in 9.0 mi SSE 12.7 mph - N/A   Overcast
7:52 AM 70.0 °F 64.9 °F 84% 29.76 in 8.0 mi SSE 13.8 mph - N/A   Overcast
8:52 AM 71.1 °F 64.9 °F 81% 29.78 in 9.0 mi South 17.3 mph 23.0 mph N/A   Overcast
9:52 AM 72.0 °F 66.0 °F 81% 29.83 in 9.0 mi South 13.8 mph - N/A   Overcast
10:52 AM 73.0 °F 64.9 °F 76% 29.85 in 9.0 mi SSW 16.1 mph 21.9 mph N/A   Overcast
11:52 AM 75.0 °F 64.9 °F 71% 29.83 in 9.0 mi South 20.7 mph - N/A   Overcast
12:52 PM 75.0 °F 66.0 °F 73% 29.83 in 10.0 mi SW 9.2 mph - N/A   Overcast
1:25 PM 75.2 °F 66.2 °F 73% 29.83 in 10.0 mi West 5.8 mph - N/A   Overcast
1:52 PM 75.9 °F 64.9 °F 69% 29.83 in 10.0 mi West 11.5 mph - N/A   Overcast
2:52 PM 77.0 °F 64.0 °F 64% 29.83 in 10.0 mi NW 8.1 mph - N/A   Partly Cloudy
3:52 PM 62.1 °F 52.0 °F 70% 29.90 in 10.0 mi North 27.6 mph 35.7 mph 0.00 in   Overcast
4:01 PM 60.8 °F 50.0 °F 68% 29.91 in 10.0 mi North 29.9 mph 36.8 mph N/A   Overcast
4:49 PM 53.6 °F 46.4 °F 77% 29.95 in 10.0 mi NNW 21.9 mph 32.2 mph N/A   Overcast
4:52 PM 54.0 °F 46.0 °F 75% 29.96 in 10.0 mi North 24.2 mph 32.2 mph N/A   Overcast
5:14 PM 51.8 °F 44.6 °F 76% 29.98 in 10.0 mi North 19.6 mph 28.8 mph N/A   Overcast
5:52 PM 50.0 °F 43.0 °F 77% 30.01 in 10.0 mi North 25.3 mph 31.1 mph N/A   Overcast
6:52 PM 48.9 °F 42.1 °F 77% 30.04 in 10.0 mi North 19.6 mph 23.0 mph N/A   Overcast
7:52 PM 48.9 °F 39.9 °F 71% 30.08 in 10.0 mi North 15.0 mph 23.0 mph N/A   Overcast
8:52 PM 48.9 °F 39.9 °F 71% 30.11 in 10.0 mi North 17.3 mph 21.9 mph N/A   Overcast
9:52 PM 48.9 °F 39.9 °F 71% 30.13 in 10.0 mi North 17.3 mph - N/A   Overcast
10:52 PM 48.9 °F 39.0 °F 69% 30.15 in 10.0 mi NNW 13.8 mph - N/A   Overcast
11:52 PM 48.9 °F 39.0 °F 69% 30.16 in 10.0 mi North 13.8 mph - N/A   Overcast